カタログに戻る

ARIANE 44P R/B

運用中GTO
NORAD 21223·ROCKET BODY·🇫🇷 France

打ち上げ Apr 4, 1991 から Guiana Space Centre

Loading…

TLE

経年Source: Space-Track

元期: Sep 14, 2026, 06:31 UTC

1 21223U 91026B   26257.27215598  .00000215  00000-0  83004-3 0  9995
2 21223   3.3525 182.9034 7173808  81.4348 347.0052  2.32344488274854

AllMySatでARIANE 44P R/Bをリアルタイム追跡

Download on the App Store